This is the latest recevied weather packets stored in our database for station/object KG4GJX. If no packets are shown the sender has not sent any weather packets the latest 10 day(s).
| Time | Temp. | Humidity | Pressure | Rain* | Wind** | Luminosity | Snow |
|---|---|---|---|---|---|---|---|
| 1777781743 | 8.89° C | 86% | 1017.6 hPa | 0 mm | - | - | - |
| 1777781080 | 9.44° C | 85% | 1017.6 hPa | 0 mm | - | - | - |
| 1777780418 | 10° C | 82% | 1017.6 hPa | 0 mm | - | - | - |
| 1777779755 | 10.56° C | 79% | 1017.6 hPa | 0 mm | - | - | - |
| 1777779093 | 11.11° C | 75% | 1017.2 hPa | 0 mm | - | - | - |
| 1777778431 | 11.11° C | 74% | 1017.2 hPa | 0 mm | - | - | - |
| 1777777768 | 11.67° C | 72% | 1017.6 hPa | 0 mm | - | - | - |
| 1777777106 | 12.22° C | 70% | 1017.6 hPa | 0 mm | - | - | - |
| 1777776444 | 12.22° C | 68% | 1017.6 hPa | 0 mm | - | - | - |
| 1777775781 | 12.78° C | 65% | 1017.2 hPa | 0 mm | - | - | - |
| 1777775119 | 12.78° C | 62% | 1016.9 hPa | 0 mm | - | - | - |
| 1777774457 | 13.33° C | 61% | 1016.9 hPa | 0 mm | - | - | - |
| 1777773795 | 13.33° C | 62% | 1016.9 hPa | 0 mm | - | - | - |
| 1777773132 | 12.78° C | 63% | 1016.5 hPa | 0 mm | - | - | - |
| 1777771810 | 12.78° C | 65% | 1016.2 hPa | 0 mm | - | - | - |
| 1777771147 | 12.22° C | 72% | 1015.9 hPa | 0 mm | - | - | - |
| 1777770485 | 12.22° C | 73% | 1015.9 hPa | 0 mm | - | - | - |
| 1777769823 | 11.67° C | 70% | 1015.5 hPa | 0 mm | - | - | - |
| 1777769160 | 12.22° C | 71% | 1015.2 hPa | 0 mm | - | - | - |
| 1777768498 | 12.78° C | 64% | 1015.2 hPa | 0 mm | - | - | - |
| 1777767835 | 13.33° C | 63% | 1015.2 hPa | 0 mm | - | - | - |
| 1777767173 | 14.44° C | 60% | 1014.9 hPa | 0 mm | - | - | - |
| 1777766511 | 15° C | 57% | 1014.9 hPa | 0 mm | - | - | - |
| 1777765850 | 15.56° C | 54% | 1014.5 hPa | 0 mm | - | - | - |
| 1777765182 | 17.22° C | 46% | 1014.5 hPa | 0 mm | - | - | - |
* Rain latest hour (hover to see other rain measurements)
** Current wind speed in m/s (hover to see current wind gust speed)